Dewpoint
40 40 40 40 40 40 34 34 30 34 38 27 28 19 18 22 18 20 18 17 16 12 11 7 9 9 17 33 33 33 28 29 23 21 24 28 27 28 31 29 27 34 34 31
39 40 40 40 40 38 35 29 24 34 36 27 22 21 20 23 21 22 20 19 19 19 16 14 12 12 14 32 36 36 37 31 24 22 29 30 28 30 37 34 36 30 30 33
39 39 39 39 39 39 37 32 29 27 29 25 25 23 16 18 26 28 25 25 27 24 21 22 16 16 21 30 28 36 37 31 27 17 28 28 29 28 29 30 30 27 25 29
38 38 38 39 39 39 36 34 28 27 26 24 21 23 20 18 16 24 22 30 23 26 21 21 20 18 16 20 31 35 35 32 28 28 29 29 21 20 20 24 25 25 18 19
37 38 39 39 39 38 34 33 29 26 23 23 21 20 15 14 18 18 16 24 20 18 20 24 27 27 25 24 31 32 35 32 28 26 27 25 21 19 15 18 23 22 23 25
39 39 39 39 40 37 33 36 34 30 24 20 19 17 15 17 18 19 21 20 21 21 24 30 28 29 28 30 29 33 33 32 27 21 24 19 16 16 17 19 21 28 28 30
39 39 39 40 40 37 34 36 34 31 21 16 16 16 16 17 19 21 21 21 26 25 25 29 30 29 28 28 29 33 33 31 27 20 18 9 19 19 22 24 25 31 30 37
40 40 40 40 41 39 36 36 34 31 26 17 15 17 18 19 22 21 21 21 25 28 31 28 20 21 25 25 27 29 35 35 27 19 16 12 10 26 25 26 25 34 34 36
41 40 40 40 41 40 37 36 37 34 29 21 18 19 18 19 19 21 22 25 29 33 31 28 21 19 14 12 19 28 30 31 31 23 14 7 25 28 29 28 21 34 35 37
41 40 40 40 40 41 39 37 37 34 32 25 26 23 22 23 25 23 24 27 26 31 28 25 25 23 18 11 14 24 26 27 25 21 18 17 28 30 32 18 28 36 35 35
41 40 41 40 41 41 39 36 39 32 30 25 27 27 25 26 27 25 26 26 28 27 25 24 25 27 25 22 20 21 21 22 24 22 20 16 33 32 28 35 37 35 33 32
41 39 39 39 40 41 40 35 38 37 33 27 33 31 30 28 27 28 27 28 30 30 28 26 27 28 28 25 20 27 27 30 28 26 28 34 34 34 34 36 36 36 33 31
40 39 39 40 40 41 40 37 37 38 35 30 28 28 30 32 32 31 28 28 28 34 37 32 31 28 30 26 26 27 30 33 32 34 32 33 34 32 32 33 32 31 31 29
40 39 39 39 40 40 41 39 38 36 35 29 25 29 29 30 32 32 32 29 29 32 32 30 30 28 30 28 30 30 31 32 30 32 32 32 32 32 31 31 31 30 32 31
39 38 38 38 39 40 43 42 40 36 29 28 28 30 30 31 32 32 33 32 31 30 28 30 28 29 31 35 32 28 31 30 29 29 32 30 29 31 31 30 30 32 29 28
38 37 38 39 41 41 41 33 41 40 39 34 27 30 28 30 33 32 32 33 32 31 30 30 32 30 32 28 30 30 31 31 33 30 32 31 30 30 29 28 27 28 27 25
37 38 39 39 40 42 35 36 38 41 39 33 28 26 28 32 32 34 34 34 33 32 31 30 28 27 30 32 30 30 30 31 32 34 33 29 29 26 26 23 22 22 20 20
38 39 39 41 41 41 37 39 40 40 34 35 28 25 28 34 31 31 35 32 33 34 32 33 29 29 32 29 28 29 30 31 29 30 31 28 26 23 21 20 19 19 18 18
39 40 41 39 38 36 38 41 40 40 35 29 26 25 26 35 32 34 34 33 29 32 30 29 29 28 28 26 26 26 26 26 28 28 25 23 22 20 19 18 18 17 17 16
40 39 36 33 37 41 40 37 35 34 32 32 27 27 28 32 32 30 31 34 29 25 27 32 30 28 25 23 23 24 23 25 28 25 23 22 21 20 19 18 18 17 17 16
37 35 34 39 41 37 32 29 27 28 25 26 27 28 28 34 31 30 32 28 29 21 27 27 27 25 22 21 20 21 21 21 22 23 23 23 22 20 18 18 17 17 16 16
37 38 39 39 33 30 25 23 24 23 18 28 28 28 30 33 35 33 31 27 28 23 32 28 25 21 21 20 19 19 19 20 20 20 20 20 19 19 18 17 17 16 16 15
38 34 33 29 28 23 21 18 21 23 27 32 32 30 33 34 35 33 32 28 29 34 30 27 22 20 19 18 17 17 17 18 18 18 18 18 18 18 17 16 16 15 14 13
30 27 23 25 23 25 26 27 30 33 34 34 34 34 34 34 32 33 29 31 32 28 24 21 21 20 19 19 17 16 17 17 17 17 16 15 14 14 14 14 14 13 12 10
27 26 22 24 30 30 31 32 32 32 34 34 34 34 35 32 30 31 29 27 25 25 25 24 22 21 19 17 17 16 15 15 16 16 15 15 14 14 14 15 15 13 11 9
26 25 25 26 26 27 30 31 30 32 33 36 35 31 30 27 27 25 21 22 21 24 23 22 20 18 17 16 16 15 16 17 16 16 16 16 15 15 14 13 12 11 10 9
22 25 27 28 29 29 28 30 30 32 33 32 30 26 22 26 23 21 23 26 24 22 21 21 21 18 16 15 15 15 16 17 17 17 17 16 16 15 13 12 13 11 12 11
Lifted_Index
11 10 9 8 8 8 9 8 8 9 9 7 7 7 8 9 9 8 8 7 6 6 6 6 5 4 3 1 0 0 -0 -0 -0 -0 -0 -0 -0 -0 -0 0 1 1 1 0
10 9 9 8 8 9 9 8 8 9 8 7 7 8 8 8 8 7 6 5 5 4 4 4 4 4 2 1 1 0 0 -0 -0 -0 -0 -0 -0 -0 0 1 1 1 1 0
9 8 8 8 8 9 9 8 8 8 8 8 8 8 8 7 6 5 4 4 3 2 2 2 2 2 2 1 1 1 0 -0 -0 -0 -0 0 0 0 0 1 1 1 1 1
8 8 8 8 8 9 9 8 8 8 8 8 8 8 7 6 5 5 4 3 2 2 1 1 1 1 1 1 1 1 1 0 -0 0 1 1 1 1 1 2 2 2 2 2
8 8 8 8 8 9 9 9 8 8 8 8 8 8 7 6 6 5 4 3 2 2 1 1 0 0 0 1 1 1 2 1 0 0 1 1 1 2 2 2 2 2 2 2
7 7 8 8 8 9 9 9 9 8 8 8 8 8 7 7 6 5 5 4 3 2 1 1 0 0 0 1 1 2 2 1 0 0 1 1 1 2 2 2 1 1 1 1
7 7 8 8 8 8 9 9 9 8 8 8 8 8 7 7 6 6 5 4 3 2 2 1 0 -0 0 1 1 2 2 1 1 0 1 1 1 1 1 1 1 1 1 1
7 7 7 7 8 8 8 8 8 8 8 8 8 7 7 6 6 5 5 4 3 2 1 1 0 -0 -0 0 1 1 1 1 0 0 1 1 1 1 1 1 1 1 2 2
7 7 7 7 8 8 8 8 8 8 8 7 7 7 6 5 5 4 4 4 4 2 1 1 0 -0 -0 0 0 0 0 0 0 0 0 0 0 1 1 2 2 2 3 3
7 7 7 7 7 7 8 8 8 8 7 7 6 6 5 5 4 4 4 4 3 3 2 1 1 0 -0 0 0 -0 -0 -0 -0 0 0 1 1 1 1 2 3 3 4 4
7 7 7 7 7 7 7 7 7 7 7 6 6 5 5 4 4 3 3 3 3 3 2 1 1 0 -0 -0 -0 -0 -0 -0 -0 -0 0 1 1 2 2 3 3 3 4 4
7 7 7 7 7 7 7 7 7 6 6 5 5 4 4 4 3 3 3 3 3 3 3 2 1 1 0 -0 -0 -0 -0 -0 -0 -0 1 1 2 2 2 3 3 4 4 4
7 7 7 7 6 6 6 7 6 6 5 4 4 4 3 3 3 3 3 3 3 3 3 3 2 1 0 0 -0 -0 0 0 1 1 1 2 2 3 3 3 3 4 4 4
7 7 7 6 6 6 6 6 6 5 4 3 3 3 3 3 3 3 3 3 3 3 3 3 2 1 1 1 0 0 1 1 1 2 2 2 3 3 3 3 4 4 5 5
7 7 7 6 6 6 6 5 5 4 4 3 2 3 3 3 2 3 3 3 3 3 3 3 2 2 1 1 1 1 1 2 2 2 2 3 3 3 4 4 4 5 5 5
7 7 6 6 6 6 5 5 4 4 3 3 2 2 2 2 2 2 2 3 3 3 3 3 2 2 2 1 1 1 2 3 3 3 3 3 3 4 4 5 5 5 5 6
6 6 6 6 5 5 5 4 3 3 3 3 2 2 2 1 1 1 2 2 3 3 3 3 3 3 2 2 2 2 3 4 4 4 4 4 4 5 5 5 6 6 6 6
6 6 5 5 5 5 4 4 4 3 3 3 2 2 1 1 0 0 1 2 2 2 2 2 2 2 2 2 2 3 4 4 4 5 5 5 5 5 5 6 6 6 6 7
5 5 5 5 4 4 4 4 4 4 3 2 2 1 1 0 0 0 1 2 2 2 2 2 2 2 3 3 3 3 4 5 5 5 5 5 5 5 6 6 6 7 7 7
5 4 4 4 4 4 4 4 4 4 3 2 2 1 1 0 1 1 2 2 2 2 2 2 2 2 3 3 4 5 5 6 6 5 5 5 5 6 6 7 8 8 9 9
4 4 4 4 4 4 4 4 4 4 3 3 3 2 1 1 2 2 2 2 2 2 2 2 2 2 3 4 5 6 7 7 7 7 7 7 7 7 8 8 9 10 11 11
4 4 4 4 4 4 4 4 4 4 3 3 3 3 2 2 2 2 2 2 1 1 1 1 2 2 3 4 6 7 8 9 9 9 9 9 9 10 10 10 11 12 13 13
3 3 4 4 4 4 4 4 4 3 3 3 3 3 3 3 2 2 2 1 1 1 1 1 1 2 4 6 7 8 9 9 10 10 10 10 11 11 12 12 13 13 14 14
3 3 3 3 4 4 4 3 3 3 3 3 2 2 2 2 2 2 1 1 1 1 1 1 2 3 5 6 8 8 9 10 10 10 11 11 12 12 13 13 14 14 15 15
3 3 3 3 3 4 4 4 3 3 3 2 2 2 2 2 1 1 1 1 1 1 1 2 3 4 6 7 8 9 9 10 11 11 12 12 13 13 14 14 15 15 16 16
2 3 3 3 3 3 4 4 3 3 2 2 2 1 1 1 1 1 1 1 2 2 2 3 5 6 7 8 9 10 11 12 12 13 13 14 14 14 14 15 16 16 17 17
2 2 3 3 3 3 3 3 3 3 2 2 1 1 1 1 1 1 2 2 3 3 3 5 6 7 8 10 11 11 12 12 13 13 14 14 15 15 15 15 16 17 17 17